Location: Unspecified
(0.0000°N, 0.0000°E)
Time: 00:35:25
(UTC+00:00)

USA 125 - Pass Details

Date: 22 May 2026
Orbit: 363 x 39930 km, 64.0° (Epoch: 9 October)

Event Time Altitude Azimuth Distance (km) Brightness Sun altitude
Rises 18:39:51 0° 344° (NNW) 12,696 ? -10.1°
Reaches altitude 10° 18:55:14 10° 356° (N) 6,972 ? -13.7°
Maximum altitude 19:05:41 21° 38° (NE) 2,800 ? -16.1°
Enters shadow 19:08:22 16° 72° (ENE) 2,312 ? -16.7°
